Terug naar catalogus

FENGYUN 1C DEB

ActiefSSO
NORAD 30501·DEBRIS·🇨🇳 China

Gelanceerd May 10, 1999 vanaf Taiyuan Satellite Launch Center

Loading…

Volgende Passages (komende 24 uur)

TLE

VersSource: Space-Track

Epoch: Sep 13, 2026, 23:23 UTC

1 30501U 99025AHP 26256.97458421  .00001887  00000-0  78782-3 0  9994
2 30501  99.0944 263.1494 0041752 128.7381 260.9271 14.26994068  8424

Volg FENGYUN 1C DEB in realtime met AllMySat

Download on the App Store